Location: Heidgraben
(53.7081°N, 9.6576°E)
Time: 21:02:45
(UTC+00:00)

YAOGAN 11 - Pass Details

Date: 05 July 2020
Orbit: 614 x 668 km, 98.3° (Epoch: 14 August)

Event Time Altitude Azimuth Distance (km) Brightness Sun altitude
Exits shadow 23:09:11 20° 159° (SSE) 1,454 5.4 -13.5°
Maximum altitude 23:12:10 82° 72° (ENE) 648 4.1 -13.6°
Drops below altitude 10° 23:16:38 10° 346° (NNW) 2,049 8.1 -13.6°
Sets 23:18:52 0° 346° (NNW) 2,973 9.3 -13.6°
